Grand Junction, CO

8:10 PM MDT on October 13, 2019 (GMT -0600)
Walker

Weather History for KGJT - May, 2019

Change the Weather History Date:

Wednesday, May 15, 2019

  Actual Average Record
Temperature  
Mean Temperature 68 °F 61 °F  
Max Temperature 83 °F 76 °F 90 °F (1996)
Min Temperature 52 °F 47 °F 32 °F (1916)
Degree Days  
Heating Degree Days 0 5  
Month to date heating degree days 127 102  
Since 1 July heating degree days 5524 5536  
Cooling Degree Days 3 1  
Month to date cooling degree days 6 12  
Year to date cooling degree days 7 15  
Growing Degree Days 17 (Base 50)    
Moisture  
Dew Point 36 °F    
Average Humidity 34    
Maximum Humidity 50    
Minimum Humidity 17    
Precipitation  
Precipitation T in 0.03 in 0.39 in (1986)
Month to date precipitation 0.12 0.47  
Year to date precipitation 5.17 3.42  
Snow  
Snow 0.00 in 0.00 in 0.00 in (2018)
Month to date snowfall 0.0 0.1  
Since 1 July snowfall 17.4 19.1  
Snow Depth 0.00 in    
Sea Level Pressure  
Sea Level Pressure 29.79 in    
Wind  
Wind Speed 9 mph (SE)    
Max Wind Speed 25 mph    
Max Gust Speed 32 mph    
Visibility 10 miles    
Events      
T = Trace of Precipitation, MM = Missing Value Source: NWS Daily Summary

Daily Weather History Graph

Daily Weather History Graph

Search for Another Location

Airport or City:

Astronomy

May. 15, 2019 Rise Set
Actual Time 6:01 AM MDT 8:20 PM MDT
Civil Twilight 5:31 AM MDT 8:50 PM MDT
Nautical Twilight 4:54 AM MDT 9:27 PM MDT
Astronomical Twilight 4:13 AM MDT 10:08 PM MDT
Moon 4:56 PM MDT (5/15) 4:26 AM MDT (5/15)
Length of Visible Light 15h 19m
Length of Day
14h 19m
Waxing Gibbous, 88% of the Moon is Illuminated
May 15
Waxing Gibbous
May 18
Full
May 26
Last Quarter
Jun 3
New
Jun 10
First Quarter

Hourly Weather History & Observations

Time (MDT) Temp. Dew Point Humidity Pressure Visibility Wind Dir Wind Speed Gust Speed Precip Events Conditions
12:53 AM 63.0 °F 33.1 °F 33% 29.84 in 10.0 mi East 16.1 mph - N/A   Clear
1:53 AM 64.0 °F 34.0 °F 33% 29.82 in 10.0 mi East 13.8 mph - N/A   Clear
2:53 AM 59.0 °F 36.0 °F 42% 29.82 in 10.0 mi East 11.5 mph - N/A   Clear
3:53 AM 55.9 °F 36.0 °F 47% 29.84 in 10.0 mi ESE 12.7 mph - N/A   Clear
4:53 AM 55.9 °F 35.1 °F 45% 29.85 in 10.0 mi ESE 10.4 mph - N/A   Clear
5:53 AM 53.1 °F 36.0 °F 52% 29.87 in 10.0 mi East 8.1 mph - N/A   Clear
6:53 AM 57.0 °F 36.0 °F 45% 29.88 in 10.0 mi East 6.9 mph - N/A   Clear
7:53 AM 62.1 °F 37.9 °F 41% 29.89 in 10.0 mi ESE 15.0 mph - N/A   Clear
8:53 AM 66.0 °F 37.9 °F 36% 29.90 in 10.0 mi SSE 10.4 mph - N/A   Clear
9:53 AM 69.1 °F 37.9 °F 32% 29.88 in 10.0 mi SE 8.1 mph - N/A   Clear
10:53 AM 73.0 °F 37.0 °F 27% 29.84 in 10.0 mi Variable 5.8 mph - N/A   Partly Cloudy
11:53 AM 75.9 °F 37.0 °F 24% 29.82 in 10.0 mi Calm Calm - N/A   Partly Cloudy
12:53 PM 80.1 °F 37.9 °F 22% 29.78 in 10.0 mi WNW 9.2 mph - N/A   Partly Cloudy
1:53 PM 75.9 °F 39.0 °F 26% 29.79 in 10.0 mi West 8.1 mph 20.7 mph 0.00 in   Scattered Clouds
2:53 PM 80.1 °F 37.9 °F 22% 29.75 in 10.0 mi WNW 10.4 mph 19.6 mph N/A   Clear
3:53 PM 82.0 °F 34.0 °F 18% 29.73 in 10.0 mi SW 13.8 mph - N/A   Clear
4:53 PM 80.1 °F 35.1 °F 20% 29.72 in 10.0 mi West 6.9 mph - N/A   Clear
5:53 PM 80.1 °F 33.1 °F 18% 29.71 in 10.0 mi SW 13.8 mph - N/A   Clear
6:53 PM 79.0 °F 34.0 °F 20% 29.70 in 10.0 mi SW 15.0 mph - N/A   Clear
7:53 PM 78.1 °F 33.1 °F 19% 29.69 in 10.0 mi SW 8.1 mph - N/A   Clear
8:53 PM 75.0 °F 35.1 °F 23% 29.69 in 10.0 mi South 5.8 mph - N/A   Clear
9:53 PM 68.0 °F 37.9 °F 33% 29.72 in 10.0 mi NW 3.5 mph - N/A   Clear
10:53 PM 64.0 °F 36.0 °F 35% 29.72 in 10.0 mi ENE 3.5 mph - N/A   Clear
11:53 PM 62.1 °F 35.1 °F 37% 29.70 in 10.0 mi ENE 9.2 mph - N/A   Clear